Location: Unspecified
(50.7693°N, 0.0000°E)
Time: 21:02:53
(UTC+00:00)

A-11 Canister half - Pass Details

Date: 21 June 2019
Orbit: 1527 x 1682 km, 47.3° (Epoch: 22 October)

Event Time Altitude Azimuth Distance (km) Brightness Sun altitude
Rises 05:08:48 0° 228° (SW) 4,734 10.9 10.1°
Reaches altitude 10° 05:12:00 10° 224° (SW) 3,734 10.5 10.6°
Maximum altitude 05:20:55 50° 152° (SSE) 1,876 9.7 11.9°
Drops below altitude 10° 05:29:44 10° 81° (E) 3,699 13.2 13.1°
Sets 05:32:53 0° 76° (ENE) 4,686 13.5 13.6°
